GW1690 Weather Reports


time (UTC)temp
F
wind
direction
speed
knots
gust
knots
rain 1hr
in
rain 24hr
in
rain mn
in
humidity
%
barometer
mb
20260507161522 64 199 1.7 4.3 0.00 0.00 0.00 38 1014.3
20260507161024 62 220 2.6 7.8 0.00 0.00 0.00 42 1015.4
20260507160522 62 216 2.6 7.8 0.00 0.00 0.00 41 1014.6
20260507160023 61 172 2.6 7.8 0.00 0.00 0.00 40 1014.7
20260507155521 61 218 2.6 7.8 0.00 0.00 0.00 42 1015.1
20260507155043 61 210 2.6 7.0 0.00 0.00 0.00 43 1015.4
20260507154523 61 211 2.6 8.7 0.00 0.00 0.00 43 1015.2
20260507154023 61 195 2.6 5.2 0.00 0.00 0.00 43 1015.3
20260507153542 61 213 2.6 7.0 0.00 0.00 0.00 44 1015.5
20260507153023 61 193 1.7 6.1 0.00 0.00 0.00 45 1015.9
20260507152522 61 220 2.6 7.0 0.00 0.00 0.00 45 1015.7
20260507152022 61 205 1.7 6.1 0.00 0.00 0.00 47 1016.4
20260507151525 60 212 1.7 6.1 0.00 0.00 0.00 49 1017.7
20260507151023 60 191 1.7 4.3 0.00 0.00 0.00 48 1018.0
20260507150544 59 210 1.7 6.1 0.00 0.00 0.00 53 1019.9
20260507150023 59 198 2.6 6.1 0.00 0.00 0.00 52 1020.1
20260507145526 59 213 1.7 6.1 0.00 0.00 0.00 54 1022.7
20260507145023 58 210 2.6 6.1 0.00 0.00 0.00 53 1020.5
20260507144540 58 190 2.6 4.3 0.00 0.00 0.00 52 1018.9
20260507144021 58 165 1.7 4.3 0.00 0.00 0.00 53 1022.0
20260507143522 57 203 2.6 7.8 0.00 0.00 0.00 52 1020.0
20260507143023 56 212 2.6 6.1 0.00 0.00 0.00 53 1021.7
20260507142523 56 167 1.7 3.5 0.00 0.00 0.00 52 1020.1
20260507142043 56 190 1.7 5.2 0.00 0.00 0.00 55 1022.5
20260507141525 56 162 1.7 4.3 0.00 0.00 0.00 54 1021.2
20260507141021 56 163 1.7 4.3 0.00 0.00 0.00 53 1021.0
20260507140523 55 196 1.7 4.3 0.00 0.00 0.00 56 1023.3
20260507140021 55 193 1.7 4.3 0.00 0.00 0.00 56 1025.1
20260507135541 54 198 1.7 3.5 0.00 0.00 0.00 58 1027.1
20260507135024 53 174 1.7 3.5 0.00 0.00 0.00 59 1029.0
20260507134526 52 95 1.7 3.5 0.00 0.00 0.00 58 1029.3
20260507134026 52 138 1.7 2.6 0.00 0.00 0.00 60 1031.6
20260507133526 52 204 1.7 2.6 0.00 0.00 0.00 61 1033.4
20260507133025 51 182 0.9 2.6 0.00 0.00 0.00 62 1034.7
20260507132525 51 176 1.7 2.6 0.00 0.00 0.00 62 1035.0
20260507132025 50 218 0.9 2.6 0.00 0.00 0.00 62 1035.1
20260507131527 50 171 1.7 3.5 0.00 0.00 0.00 65 1038.7
20260507131027 49 214 1.7 2.6 0.00 0.00 0.00 69 1040.1
20260507130526 48 217 1.7 2.6 0.00 0.00 0.00 73 1035.8
20260507130027 48 190 1.7 2.6 0.00 0.00 0.00 76 1034.0
20260507125526 47 175 0.9 2.6 0.00 0.00 0.00 77 1033.8
20260507125026 47 190 0.9 1.7 0.00 0.00 0.00 78 1033.8
20260507124528 46 170 0.9 2.6 0.00 0.00 0.00 78 1034.4
20260507124028 45 174 0.9 1.7 0.00 0.00 0.00 81 1038.4
20260507123526 45 149 1.7 2.6 0.00 0.00 0.00 84 1042.2
20260507123108 44 200 0.9 1.7 0.00 0.00 0.00 87 1043.9
20260507122526 44 200 0.9 1.7 0.00 0.00 0.00 88 1043.9
20260507122027 43 237 0.9 1.7 0.00 0.00 0.00 89 1043.2
20260507121528 43 224 0.9 1.7 0.00 0.00 0.00 90 1042.2
20260507121027 43 224 0.9 1.7 0.00 0.00 0.00 91 1041.1
20260507120527 42 219 0.9 0.9 0.00 0.00 0.00 92 1040.2
20260507120026 42 221 0.9 1.7 0.00 0.00 0.00 92 1039.9
20260507115547 41 216 0.0 0.9 0.00 0.00 0.00 93 1039.8
20260507115027 41 223 0.9 1.7 0.00 0.00 0.00 93 1039.8
20260507114528 41 212 0.9 0.9 0.00 0.00 0.00 93 1040.0
20260507114029 41 218 0.9 0.9 0.00 0.00 0.00 93 1040.2
20260507113529 41 226 0.9 1.7 0.00 0.00 0.00 93 1040.5
20260507113029 41 227 0.9 1.7 0.00 0.00 0.00 93 1040.8
20260507112528 41 224 0.9 1.7 0.00 0.00 0.00 93 1041.2
20260507112031 41 230 0.9 1.7 0.00 0.00 0.00 93 1041.6
20260507111527 41 234 0.9 1.7 0.00 0.00 0.00 93 1042.0
20260507111029 41 231 0.9 1.7 0.00 0.00 0.00 92 1042.3
20260507110527 41 226 0.9 1.7 0.00 0.00 0.00 92 1042.6
20260507110028 41 249 1.7 1.7 0.00 0.00 0.00 92 1042.9
20260507105528 41 228 0.9 1.7 0.00 0.00 0.00 92 1043.2
20260507105048 41 251 1.7 1.7 0.00 0.00 0.00 92 1043.5
20260507104548 41 238 1.7 1.7 0.00 0.00 0.00 92 1043.8
20260507104028 41 236 1.7 1.7 0.00 0.00 0.00 91 1043.9
20260507103529 42 234 1.7 1.7 0.00 0.00 0.00 91 1044.0
20260507103029 42 243 1.7 1.7 0.00 0.00 0.00 91 1044.0
20260507102529 42 230 1.7 1.7 0.00 0.00 0.00 91 1044.0
20260507102028 42 232 1.7 1.7 0.00 0.00 0.00 91 1043.9
20260507101528 42 237 1.7 1.7 0.00 0.00 0.00 91 1043.8
20260507101030 42 307 1.7 1.7 0.00 0.00 0.00 91 1043.8
20260507100531 42 240 1.7 1.7 0.00 0.00 0.00 91 1043.8
20260507100029 42 237 1.7 1.7 0.00 0.00 0.00 91 1043.8
20260507095529 42 233 1.7 1.7 0.00 0.00 0.00 91 1043.7
20260507095028 42 262 1.7 1.7 0.00 0.00 0.00 91 1043.5
20260507094529 42 254 1.7 1.7 0.00 0.00 0.00 91 1043.4
20260507094050 42 237 1.7 1.7 0.00 0.00 0.00 90 1043.3
20260507093529 42 231 1.7 1.7 0.00 0.00 0.00 90 1043.2
20260507093030 42 240 1.7 1.7 0.00 0.00 0.00 90 1043.1
20260507092530 42 287 1.7 1.7 0.00 0.00 0.00 90 1043.1
20260507092029 42 227 0.9 1.7 0.00 0.00 0.00 90 1043.0
20260507091550 41 235 0.9 1.7 0.00 0.00 0.00 90 1043.0
20260507091030 41 234 0.9 1.7 0.00 0.00 0.00 90 1042.9
20260507090530 41 228 0.9 1.7 0.00 0.00 0.00 91 1042.9
20260507090051 41 232 1.7 1.7 0.00 0.00 0.00 90 1042.9
20260507085530 41 231 1.7 1.7 0.00 0.00 0.00 89 1042.7
20260507085030 41 244 1.7 1.7 0.00 0.00 0.00 89 1042.7
20260507084530 41 249 1.7 1.7 0.00 0.00 0.00 89 1042.3
20260507084029 41 242 1.7 1.7 0.00 0.00 0.00 88 1041.8
20260507083530 41 236 1.7 1.7 0.00 0.00 0.00 88 1041.7
20260507083111 41 245 1.7 1.7 0.00 0.00 0.00 88 1041.4
20260507082551 41 292 1.7 1.7 0.00 0.00 0.00 88 1041.2
20260507082031 41 246 1.7 1.7 0.00 0.00 0.00 87 1040.9
20260507081532 42 234 0.9 1.7 0.00 0.00 0.00 87 1040.3
20260507081032 42 261 0.9 1.7 0.00 0.00 0.00 86 1039.7
20260507080533 42 235 0.9 1.7 0.00 0.00 0.00 86 1038.6
20260507080055 42 286 1.7 1.7 0.00 0.00 0.00 84 1037.8
20260507075552 42 243 1.7 1.7 0.00 0.00 0.00 84 1038.5
20260507075031 42 233 1.7 1.7 0.00 0.00 0.00 85 1038.9
20260507074531 43 239 1.7 1.7 0.00 0.00 0.00 85 1038.1
20260507074032 43 234 1.7 1.7 0.00 0.00 0.00 85 1038.0
20260507073533 43 243 1.7 1.7 0.00 0.00 0.00 84 1037.5
20260507073033 43 235 1.7 1.7 0.00 0.00 0.00 84 1036.5
20260507072531 43 295 1.7 1.7 0.00 0.00 0.00 82 1034.9
20260507072031 43 245 1.7 1.7 0.00 0.00 0.00 82 1035.1
20260507071522 44 239 1.7 1.7 0.00 0.00 0.00 82 1034.6
20260507071022 44 256 1.7 1.7 0.00 0.00 0.00 81 1034.3
20260507070522 44 262 1.7 1.7 0.00 0.00 0.00 81 1034.7
20260507070024 44 249 1.7 1.7 0.00 0.00 0.00 81 1034.8
20260507065523 45 247 1.7 1.7 0.00 0.00 0.00 81 1034.3
20260507065043 45 336 1.7 2.6 0.00 0.01 0.00 80 1033.4
20260507064522 45 257 1.7 1.7 0.00 0.01 0.00 79 1032.3
20260507064020 45 342 1.7 2.6 0.00 0.01 0.00 77 1031.3
20260507063519 45 10 0.9 2.6 0.00 0.02 0.00 77 1031.2
20260507063024 45 17 2.6 2.6 0.00 0.02 0.00 77 1031.2
20260507062523 45 15 1.7 2.6 0.00 0.02 0.00 76 1031.3
20260507062026 45 14 1.7 2.6 0.00 0.02 0.00 75 1031.5
20260507061524 45 17 2.6 2.6 0.00 0.02 0.00 75 1031.4
20260507061023 45 19 2.6 2.6 0.00 0.02 0.00 76 1031.4
20260507060523 46 16 2.6 2.6 0.00 0.03 0.00 75 1031.5
20260507060045 46 19 2.6 2.6 0.00 0.03 0.00 75 1031.9
20260507055521 46 15 2.6 2.6 0.00 0.03 0.00 75 1031.6
20260507055023 46 13 1.7 2.6 0.00 0.04 0.00 75 1031.7
20260507054520 46 15 1.7 2.6 0.00 0.04 0.00 74 1032.4
20260507054043 46 19 1.7 2.6 0.00 0.04 0.00 73 1033.2
20260507053522 47 18 2.6 2.6 0.00 0.04 0.00 72 1034.7
20260507053027 47 18 2.6 2.6 0.00 0.04 0.00 72 1035.3
20260507052524 47 21 1.7 2.6 0.00 0.04 0.00 71 1036.7
20260507052025 47 19 1.7 2.6 0.00 0.04 0.00 70 1038.7
20260507051521 47 20 2.6 2.6 0.00 0.04 0.00 70 1038.2
20260507051022 47 21 2.6 2.6 0.00 0.04 0.00 70 1038.0
20260507050521 47 18 0.9 2.6 0.00 0.04 0.00 71 1037.2
20260507050021 47 219 0.0 1.7 0.00 0.04 0.00 70 1037.7
20260507045522 47 15 1.7 2.6 0.00 0.04 0.04 70 1037.9
20260507045023 47 16 1.7 2.6 0.00 0.05 0.04 70 1037.1
20260507044521 47 17 1.7 2.6 0.00 0.05 0.04 72 1034.9
20260507044042 47 19 1.7 2.6 0.00 0.05 0.04 71 1036.7
20260507043522 47 15 2.6 2.6 0.00 0.05 0.04 71 1036.1
20260507043022 48 9 0.9 2.6 0.00 0.06 0.04 72 1034.3
20260507042521 48 18 1.7 2.6 0.00 0.06 0.04 72 1034.9
20260507042024 48 18 1.7 2.6 0.00 0.06 0.04 71 1037.1
20260507041522 48 18 1.7 2.6 0.00 0.06 0.04 70 1038.1
20260507041023 48 17 1.7 2.6 0.00 0.06 0.04 70 1038.5
20260507040542 48 12 0.9 2.6 0.00 0.06 0.04 71 1037.1
20260507040022 48 19 1.7 2.6 0.00 0.06 0.04 70 1038.4
20260507035523 48 9 0.9 2.6 0.00 0.06 0.04 70 1038.5
20260507035025 49 11 1.7 2.6 0.00 0.06 0.04 70 1039.1
20260507034520 49 16 1.7 2.6 0.00 0.06 0.04 68 1040.7
20260507034044 49 319 0.9 2.6 0.00 0.06 0.04 68 1040.7
20260507033523 49 337 0.9 2.6 0.00 0.06 0.04 68 1040.7
20260507033025 49 17 1.7 2.6 0.00 0.06 0.04 67 1041.4
20260507032523 49 246 1.7 2.6 0.00 0.06 0.04 67 1041.4
20260507032025 49 228 0.9 2.6 0.00 0.06 0.04 68 1041.1
20260507031524 50 308 1.7 2.6 0.00 0.07 0.04 67 1041.3
20260507031020 50 18 2.6 3.5 0.00 0.07 0.04 67 1041.3
20260507030520 50 349 2.6 2.6 0.00 0.07 0.04 66 1041.5
20260507030021 50 245 2.6 2.6 0.00 0.07 0.04 66 1041.6
20260507025520 50 234 2.6 2.6 0.00 0.07 0.04 66 1041.4
20260507025024 51 248 2.6 3.5 0.00 0.07 0.04 65 1041.0
20260507024524 51 336 2.6 3.5 0.00 0.07 0.04 65 1041.3
20260507024025 51 262 2.6 3.5 0.00 0.07 0.04 65 1041.3
20260507023524 51 347 2.6 3.5 0.00 0.07 0.04 64 1041.0
20260507023025 51 251 2.6 3.5 0.00 0.07 0.04 64 1040.3
20260507022520 51 260 2.6 3.5 0.00 0.07 0.04 64 1039.9
20260507022022 52 288 2.6 3.5 0.00 0.07 0.04 63 1039.3
20260507021521 52 252 2.6 3.5 0.00 0.07 0.04 64 1040.6
20260507021021 52 337 2.6 3.5 0.00 0.07 0.04 63 1040.2
20260507020542 52 338 3.5 3.5 0.00 0.07 0.04 63 1040.3
20260507020043 52 239 2.6 3.5 0.00 0.08 0.04 63 1040.0
20260507015521 52 333 2.6 3.5 0.00 0.08 0.04 62 1038.1
20260507015023 53 241 2.6 3.5 0.00 0.08 0.04 62 1038.5
20260507014601 53 243 2.6 3.5 0.00 0.09 0.04 62 1039.1
20260507014022 53 347 3.5 3.5 0.00 0.10 0.04 61 1035.9
20260507013543 54 245 2.6 3.5 0.00 0.10 0.04 60 1034.7
20260507013022 54 242 2.6 3.5 0.00 0.11 0.04 59 1032.4
20260507012522 55 231 0.9 2.6 0.00 0.11 0.04 58 1029.9
20260507012022 55 4 1.7 3.5 0.00 0.12 0.04 57 1028.7
20260507011522 55 317 0.9 3.5 0.00 0.12 0.04 57 1028.0
20260507011022 56 25 2.6 3.5 0.00 0.12 0.04 54 1022.8
20260507010522 56 26 2.6 3.5 0.00 0.13 0.04 53 1021.3
20260507010023 56 26 3.5 4.3 0.00 0.15 0.04 53 1021.7
20260507005523 57 25 2.6 4.3 0.00 0.16 0.04 51 1019.9
20260507005044 57 23 3.5 5.2 0.00 0.17 0.04 51 1019.4
20260507004543 57 23 3.5 5.2 0.00 0.19 0.04 51 1018.5
20260507004023 57 11 3.5 5.2 0.00 0.19 0.04 51 1019.2
20260507003522 57 17 4.3 4.3 0.00 0.19 0.04 50 1018.5
20260507003045 58 344 3.5 5.2 0.00 0.21 0.04 49 1017.8
20260507002523 58 6 4.3 6.1 0.00 0.21 0.04 49 1017.3
20260507002024 58 319 4.3 6.1 0.00 0.21 0.04 48 1017.0
20260507001521 58 351 5.2 6.1 0.00 0.21 0.04 48 1016.7
20260507001021 58 329 5.2 6.1 0.00 0.21 0.04 48 1016.0
20260507000521 58 232 3.5 6.1 0.00 0.21 0.04 47 1016.2
20260507000023 59 254 4.3 5.2 0.00 0.21 0.04 48 1016.5
20260506235523 59 346 5.2 6.1 0.00 0.21 0.04 47 1016.0
20260506235045 59 3 5.2 7.0 0.00 0.21 0.04 46 1015.3
20260506234524 60 10 5.2 7.8 0.00 0.21 0.04 45 1014.6
20260506234024 60 13 6.1 7.8 0.00 0.22 0.04 46 1015.1
20260506233521 60 23 7.0 9.6 0.00 0.22 0.04 46 1015.3
20260506233021 60 21 7.0 8.7 0.00 0.22 0.04 45 1014.7
20260506232522 60 21 7.0 9.6 0.00 0.22 0.04 45 1014.8
20260506232042 60 22 7.0 9.6 0.00 0.25 0.04 45 1014.8
20260506231521 60 25 6.1 9.6 0.00 0.28 0.04 46 1015.0
20260506231021 60 25 6.1 8.7 0.00 0.29 0.04 45 1014.9
20260506230603 60 256 6.1 8.7 0.00 0.30 0.04 45 1014.8
20260506230026 60 227 6.1 7.8 0.00 0.30 0.04 44 1014.3
20260506225523 60 224 5.2 7.8 0.00 0.30 0.04 44 1014.5
20260506225021 60 230 5.2 7.8 0.00 0.30 0.04 45 1014.9
20260506224521 60 321 5.2 8.7 0.00 0.30 0.04 46 1015.8
20260506224022 60 275 5.2 7.8 0.00 0.30 0.04 44 1014.7
20260506223524 61 251 4.3 8.7 0.00 0.30 0.04 45 1014.8
20260506223022 61 233 1.7 6.1 0.00 0.31 0.04 43 1014.4
20260506222522 61 219 0.9 1.7 0.00 0.31 0.04 44 1014.4
20260506222022 62 223 1.7 5.2 0.00 0.31 0.04 43 1014.2
20260506221523 62 228 1.7 6.1 0.00 0.31 0.04 45 1014.7
20260506221023 62 227 2.6 6.1 0.00 0.31 0.04 45 1015.0
20260506220520 62 231 4.3 7.8 0.00 0.31 0.04 44 1014.3
20260506220023 62 225 4.3 7.8 0.00 0.31 0.04 45 1014.9
20260506215523 62 223 2.6 5.2 0.00 0.31 0.04 44 1014.6
20260506215023 62 232 3.5 8.7 0.00 0.31 0.04 43 1014.6
20260506214522 62 306 6.1 9.6 0.00 0.31 0.04 44 1014.7
20260506214025 62 305 6.1 8.7 0.00 0.31 0.04 44 1014.6
20260506213523 62 273 6.1 8.7 0.00 0.31 0.04 43 1014.3
20260506213021 62 255 2.6 7.0 0.00 0.31 0.04 45 1014.8
20260506212524 62 271 5.2 7.8 0.00 0.31 0.04 44 1015.1
20260506212021 62 259 5.2 8.7 0.00 0.31 0.04 43 1014.3
20260506211522 62 260 7.0 10.4 0.00 0.31 0.04 43 1014.3
20260506211100 62 255 6.1 9.6 0.00 0.31 0.04 44 1014.7
20260506210520 62 247 1.7 8.7 0.00 0.31 0.04 45 1015.0
20260506210023 63 219 1.7 6.1 0.00 0.31 0.04 43 1014.6
20260506205604 63 218 1.7 6.1 0.00 0.31 0.04 45 1015.3
20260506205023 62 217 1.7 6.1 0.00 0.31 0.04 47 1016.0
20260506204524 62 215 1.7 7.0 0.00 0.32 0.04 47 1016.2
20260506204041 62 218 2.6 7.0 0.00 0.32 0.04 48 1016.8
20260506203520 61 266 4.3 9.6 0.00 0.32 0.04 45 1015.1
20260506203022 61 304 6.1 8.7 0.00 0.32 0.04 46 1015.7
20260506202522 62 347 7.8 12.2 0.00 0.32 0.04 44 1015.0
20260506202021 62 319 7.0 12.2 0.00 0.32 0.04 43 1014.7
20260506201521 62 9 7.0 8.7 0.00 0.32 0.04 43 1014.9
20260506201021 62 347 6.1 8.7 0.00 0.33 0.04 44 1015.0
20260506200521 62 215 2.6 7.0 0.00 0.33 0.04 45 1016.0
20260506200043 62 216 1.7 7.0 0.00 0.33 0.04 45 1016.0
20260506195521 62 219 1.7 7.0 0.00 0.33 0.04 44 1015.1
20260506195021 61 214 2.6 7.0 0.00 0.33 0.04 45 1016.2
20260506194603 61 214 2.6 7.0 0.00 0.33 0.04 46 1016.6
20260506194022 61 221 1.7 7.0 0.00 0.33 0.04 46 1016.4
20260506193543 62 242 5.2 8.7 0.00 0.33 0.04 44 1015.7
20260506193022 62 227 4.3 8.7 0.00 0.33 0.04 44 1016.2
20260506192524 61 277 5.2 8.7 0.00 0.33 0.04 43 1015.0
20260506192023 61 331 5.2 7.8 0.00 0.33 0.04 43 1015.0
20260506191522 61 345 6.1 9.6 0.00 0.33 0.04 43 1015.0
20260506191043 62 12 7.0 10.4 0.00 0.33 0.04 43 1014.9
20260506190523 62 14 7.8 9.6 0.00 0.33 0.04 44 1014.9
20260506190025 62 14 7.8 10.4 0.00 0.33 0.04 42 1014.5
20260506185523 63 19 7.8 12.2 0.00 0.33 0.04 41 1014.1
20260506185022 64 341 6.1 13.0 0.00 0.33 0.04 42 1014.1
20260506184524 63 342 6.1 11.3 0.00 0.33 0.04 42 1014.2
20260506184023 63 5 6.1 9.6 0.00 0.33 0.04 43 1014.3
20260506183523 64 25 5.2 9.6 0.00 0.33 0.04 43 1014.5
20260506183022 64 24 4.3 8.7 0.00 0.33 0.04 43 1014.5
20260506182524 63 245 5.2 10.4 0.00 0.33 0.04 45 1014.9
20260506182020 63 5 5.2 9.6 0.00 0.33 0.04 45 1015.4
20260506181520 62 14 6.1 9.6 0.00 0.33 0.04 45 1015.2
20260506181045 62 289 5.2 9.6 0.00 0.33 0.04 46 1015.2
20260506180523 63 230 4.3 8.7 0.00 0.33 0.04 49 1016.9
20260506180023 63 194 2.6 7.0 0.00 0.33 0.04 52 1019.1
20260506175543 63 218 2.6 7.0 0.00 0.33 0.04 51 1019.0
20260506175022 63 239 3.5 7.8 0.00 0.33 0.04 54 1021.8
20260506174523 63 280 5.2 9.6 0.00 0.33 0.04 56 1025.2
20260506174021 62 279 4.3 8.7 0.00 0.33 0.04 59 1028.7
20260506173523 61 299 2.6 7.8 0.00 0.33 0.04 60 1031.3
20260506173024 61 360 3.5 7.0 0.00 0.33 0.04 61 1031.6
20260506172524 59 241 5.2 7.8 0.00 0.33 0.04 65 1040.5
20260506172024 58 232 4.3 7.8 0.00 0.33 0.04 67 1040.8
20260506171525 57 333 5.2 8.7 0.00 0.33 0.04 68 1040.9
20260506171025 57 345 5.2 7.0 0.00 0.33 0.04 67 1039.5
20260506170524 56 352 5.2 6.1 0.00 0.33 0.04 70 1038.9
20260506170025 56 360 4.3 6.1 0.00 0.33 0.04 71 1038.1
20260506165525 56 18 5.2 6.1 0.00 0.33 0.04 71 1037.5
20260506165026 56 337 4.3 7.0 0.00 0.34 0.04 73 1034.5
20260506164525 55 16 4.3 6.1 0.00 0.34 0.04 75 1032.6
20260506164025 55 358 4.3 6.1 0.00 0.34 0.04 73 1033.5
20260506163526 55 12 4.3 7.0 0.00 0.34 0.04 76 1030.9
20260506163031 55 344 4.3 6.1 0.00 0.34 0.04 76 1031.0
20260506162534 54 216 0.9 2.6 0.00 0.34 0.04 79 1032.2
20260506162034 54 218 1.7 2.6 0.00 0.34 0.04 80 1032.8